User: anonymous   Login
Location: Vancouver
(49.2500°N, 123.1330°W)
Time: 23:16:02
(UTC-08:00)
Language:

Cosmos 676 Rocket - Orbit

View from above orbital plane
View from above orbital plane
View from above satellite
View from above satellite

Ground track
Ground track

The orbit data is extracted from the following two-line orbital elements,

1  7434U 74071B   17346.90695081 +.00000018 +00000-0 +14819-4 0  9992
2  7434 074.0473 245.8090 0019628 113.8700 246.4512 14.36662029262103
Epoch (UTC): 12 December 2017 21:46:00
Eccentricity: 0.0019628
inclination: 74.0473°
perigee height: 755 km
apogee height: 783 km
right ascension of ascending node: 245.8090°
argument of perigee: 113.8700°
revolutions per day: 14.36662029
mean anomaly at epoch: 246.4512°
orbit number at epoch: 26210

The dashed part of the orbit path shows where the satellite is in the earth's shadow,  

DLR